N564AT -KGMU

Flight info

Callsign N564AT
Flight time N/A
Altitude VFR
Route FULL STOP
Aircraft C172/L-DOV/C

Departure

Time N/A
Airport -

Arrival

Time 2026-04-25 20:42
Airport Greenville Downtown Airport (KGMU)
Time Latitude Longitude Altitude Speed Heading
2026-04-25 20:33 35.02782 -82.22260 4993 ft 108 kts 225°
2026-04-25 20:33 35.02338 -82.22983 4979 ft 110 kts 250°
2026-04-25 20:33 35.02226 -82.23918 4928 ft 109 kts 265°
2026-04-25 20:33 35.02218 -82.24226 4840 ft 110 kts 266°
2026-04-25 20:34 35.02208 -82.25828 4383 ft 112 kts 267°
2026-04-25 20:34 35.02208 -82.26765 4197 ft 108 kts 268°
2026-04-25 20:34 35.02208 -82.27670 4025 ft 105 kts 268°
2026-04-25 20:34 35.02209 -82.28509 3990 ft 95 kts 268°
2026-04-25 20:35 35.02202 -82.29352 3997 ft 100 kts 268°
2026-04-25 20:35 35.02198 -82.30225 3991 ft 103 kts 268°
2026-04-25 20:35 35.02198 -82.31110 3993 ft 105 kts 268°
2026-04-25 20:35 35.02199 -82.31994 3999 ft 105 kts 268°
2026-04-25 20:36 35.02201 -82.32903 3999 ft 106 kts 268°
2026-04-25 20:36 35.02004 -82.33746 4003 ft 107 kts 231°
2026-04-25 20:36 35.01331 -82.34186 3930 ft 116 kts 197°
2026-04-25 20:36 35.00517 -82.34325 3881 ft 117 kts 190°
2026-04-25 20:37 34.99699 -82.34395 3817 ft 119 kts 188°
2026-04-25 20:37 34.98870 -82.34441 3776 ft 116 kts 187°
2026-04-25 20:37 34.98058 -82.34478 3556 ft 118 kts 187°
2026-04-25 20:37 34.97242 -82.34509 3350 ft 118 kts 187°
2026-04-25 20:38 34.96418 -82.34536 3154 ft 117 kts 187°
2026-04-25 20:38 34.95592 -82.34560 2938 ft 119 kts 186°
2026-04-25 20:38 34.94770 -82.34583 2695 ft 119 kts 186°
2026-04-25 20:38 34.93932 -82.34608 2404 ft 121 kts 186°
2026-04-25 20:39 34.93119 -82.34794 2108 ft 121 kts 194°
2026-04-25 20:39 34.92288 -82.34771 1849 ft 122 kts 180°
2026-04-25 20:39 34.91488 -82.34713 1776 ft 108 kts 180°
2026-04-25 20:39 34.91246 -82.34695 1771 ft 103 kts 181°
2026-04-25 20:40 34.90151 -82.34697 1805 ft 80 kts 185°
2026-04-25 20:40 34.89594 -82.34709 1776 ft 77 kts 186°
2026-04-25 20:40 34.89063 -82.34721 1773 ft 74 kts 186°
2026-04-25 20:40 34.88562 -82.34734 1774 ft 71 kts 185°
2026-04-25 20:41 34.88040 -82.34731 1688 ft 77 kts 190°
2026-04-25 20:41 34.87514 -82.34762 1548 ft 76 kts 185°
2026-04-25 20:41 34.86986 -82.34789 1387 ft 75 kts 186°
2026-04-25 20:41 34.86462 -82.34799 1252 ft 74 kts 185°
2026-04-25 20:42 34.85952 -82.34810 1156 ft 72 kts 183°
2026-04-25 20:42 34.85455 -82.34821 1062 ft 70 kts 183°
2026-04-25 20:42 34.85011 -82.34837 1018 ft 49 kts 182°
2026-04-25 20:42 34.84819 -82.34843 1008 ft 21 kts 183°
2026-04-25 20:43 34.84672 -82.34843 1002 ft 20 kts 184°
2026-04-25 20:43 34.84586 -82.34914 1000 ft 13 kts 269°
2026-04-25 20:43 34.84622 -82.34929 1001 ft 11 kts
2026-04-25 20:43 34.84736 -82.34925 1004 ft 17 kts
2026-04-25 20:44 34.84853 -82.34921 1009 ft 13 kts
2026-04-25 20:44 34.84907 -82.34909 1012 ft 2 kts 65°
2026-04-25 20:44 34.84914 -82.34911 1013 ft 4 kts 332°
2026-04-25 20:45 34.84967 -82.34956 1016 ft 12 kts 326°
2026-04-25 20:45 34.85015 -82.35018 1018 ft 9 kts 250°
2026-04-25 20:45 34.85014 -82.35091 1017 ft 6 kts 333°
2026-04-25 20:45 34.85024 -82.35095 1017 ft 0 kts